User: anonymous   Login
Location: Copper Breaks State Park
(34.1132°N, 99.7492°W)
Time: 05:26:39
(UTC-05:00)
Language:

SL-16 R/B - Orbit

View from above orbital plane
View from above orbital plane
View from above satellite
View from above satellite

Ground track
Ground track

The orbit data is extracted from the following two-line orbital elements,

1 27006U 01056F   16269.10024787  .00000002  00000-0  50094-4 0  9994
2 27006  99.2744  53.0011 0013741 281.5448 204.8812 13.70973643740177
Epoch (UTC): 25 September 2016 02:24:21
Eccentricity: 0.0013741
inclination: 99.2744°
perigee height: 986 km
apogee height: 1006 km
right ascension of ascending node: 53.0011°
argument of perigee: 281.5448°
revolutions per day: 13.70973643
mean anomaly at epoch: 204.8812°
orbit number at epoch: 74017

The dashed part of the orbit path shows where the satellite is in the earth's shadow,  

DLR